Location: Ar Ranvel
(48.3000°N, 4.8833°W)
Time: 08:54:10
(UTC+00:00)

Cosmos 2322 Rocket - Pass Details

Date: 16 June 2021
Orbit: 833 x 850 km, 71.0° (Epoch: 01 August)

Event Time Altitude Azimuth Distance (km) Brightness Sun altitude
Rises 21:43:03 0° 208° (SSW) 3,399 5.1 -10.1°
Reaches altitude 10° 21:45:29 10° 209° (SSW) 2,469 4.4 -10.4°
Maximum altitude 21:51:11 83° 297° (WNW) 863 2.3 -10.9°
Drops below altitude 10° 21:56:55 10° 27° (NNE) 2,487 5.1 -11.5°
Sets 21:59:23 0° 28° (NNE) 3,426 5.8 -11.7°
